[[{"header":{"parameterUnit":"m.s-1","parameterCategory":1,"la1":30.2991,"la2":30.254,"lo1":-89.0895,"lo2":-89.0444,"dx":0.0017,"dy":0.0017,"nx":28,"ny":28,"refTime":"2022-11-28T15:00:00:Z","depth":0,"parameterNumber":2,"parameterNumberName":"U-component_of_WINDS"},"data":[0,0,0,0,0,0,0,0,0,0,0,0,0,0,0,0,0,0,0,0,0,0,0,0,0,0,0,0,0,0,0,0,0,0,0,0,0,0,0,0,0,0,0,0,0,0,0,0,0,0,0,0,0,0,0,0,0,0,-1.292,-1.2922,0,-1.302,-1.3021,-1.3022,-1.3074,-1.3074,-1.3074,-1.3074,-1.3177,-1.3179,-1.3182,0,0,0,0,0,0,0,0,0,0,0,0,0,-1.2776,-1.2778,-1.292,-1.2922,-1.2923,-1.302,-1.3021,-1.3023,-1.3074,-1.3074,-1.3074,-1.3074,-1.3176,-1.3179,-1.3182,0,0,0,0,0,0,0,0,0,0,0,0,0,-1.2853,-1.2779,-1.292,-1.296,-1.2965,-1.302,-1.3021,-1.3023,-1.3074,-1.3074,-1.3074,-1.3074,-1.3175,-1.3179,-1.3183,-1.3205,0,0,-1.3195,-1.3197,0,0,0,0,0,0,0,0,-1.2849,-1.2858,-1.2953,-1.2958,-1.2963,-1.3035,-1.3008,-1.3084,-1.3074,-1.3033,-1.3074,-1.3074,-1.3129,-1.3137,-1.3156,-1.321,-1.3214,-1.3195,-1.3198,-1.3199,-1.32,0,0,0,0,0,0,0,-1.2843,-1.2854,-1.296,-1.2954,-1.296,-1.2974,-1.2985,-1.3023,-1.3079,-1.3036,-1.304,-1.3051,-1.3132,-1.3152,-1.3158,-1.3216,-1.3195,-1.3199,-1.3201,-1.3203,-1.3295,-1.3295,0,0,0,0,0,0,-1.2831,-1.285,-1.2957,-1.2963,-1.2905,-1.2976,-1.2989,-1.3012,-1.3079,-1.3089,-1.3051,-1.3053,-1.3145,-1.3154,-1.3162,-1.3194,-1.3199,-1.3203,-1.3205,-1.3295,-1.3295,-1.3295,0,0,0,0,0,0,-1.2828,-1.284,-1.2953,-1.2907,-1.2923,-1.2978,-1.3004,-1.3013,-1.3033,-1.309,-1.3101,-1.3061,-1.3145,-1.3157,-1.3194,-1.3198,-1.3205,-1.3208,-1.3295,-1.3295,-1.3295,-1.3256,0,0,0,0,0,0,-1.2824,-1.2839,-1.2848,-1.2907,-1.2925,-1.2983,-1.3004,-1.3015,-1.304,-1.3044,-1.3102,-1.3112,-1.3146,-1.3188,-1.3198,-1.3204,-1.3212,-1.3295,-1.3295,-1.3295,-1.3257,-1.3255,-1.3253,0,0,0,0,0,-1.2818,-1.2833,-1.2848,-1.2861,-1.2937,-1.2983,-1.2993,-1.3032,-1.304,-1.305,-1.3086,-1.311,-1.3196,-1.3192,-1.3203,-1.321,-1.3295,-1.3295,-1.3295,-1.3258,-1.3255,-1.3253,0,0,0,0,0,0,-1.2773,-1.2841,-1.2859,-1.2893,-1.2932,-1.2991,-1.3005,-1.3028,-1.3065,-1.3067,-1.3115,-1.3127,-1.3161,-1.3189,-1.3183,-1.3236,-1.3248,-1.325,-1.3216,-1.3214,-1.3211,-1.3204,-1.3215,0,0,0,0,0,-1.2766,-1.2797,-1.2856,-1.2881,-1.2899,-1.2948,-1.297,-1.2997,-1.3039,-1.3055,-1.3095,-1.3135,-1.3171,-1.3194,-1.323,-1.3262,-1.3276,-1.3272,-1.327,-1.3268,-1.3269,-1.3289,-1.3288,-1.3295,-1.3295,-1.3295,0,0,-1.2754,-1.2796,-1.2812,-1.2872,-1.2906,-1.2937,-1.2962,-1.2994,-1.3018,-1.306,-1.3098,-1.3129,-1.3177,-1.3211,-1.3229,-1.3236,-1.3271,-1.3268,-1.3266,-1.3269,-1.3289,-1.3288,-1.3287,-1.3295,-1.3295,-1.3295,0,0,-1.2748,-1.2782,-1.2807,-1.2839,-1.2889,-1.2922,-1.2928,-1.2984,-1.3006,-1.3045,-1.3078,-1.3107,-1.3168,-1.3201,-1.3226,-1.3232,-1.3255,-1.3243,-1.3231,-1.3249,-1.3249,-1.3248,-1.3251,-1.3251,-1.3244,-1.3244,-1.3244,0,-1.2726,-1.2775,-1.2816,-1.2847,-1.2872,-1.2912,-1.2938,-1.2967,-1.3026,-1.3043,-1.3051,-1.3129,-1.3164,-1.3207,-1.3209,-1.3227,-1.3236,-1.3236,-1.3245,-1.3245,-1.3246,-1.3249,-1.325,-1.3242,-1.3242,-1.3243,-1.3243,0,-1.2746,-1.2779,-1.2793,-1.2849,-1.2876,-1.2904,-1.295,-1.2972,-1.2997,-1.3029,-1.3069,-1.3112,-1.3158,-1.3171,-1.3195,-1.3218,-1.3221,-1.3236,-1.3249,-1.3243,-1.3246,-1.3248,-1.324,-1.324,-1.3241,-1.3241,0,0,-1.2713,-1.2792,-1.2796,-1.2822,-1.2881,-1.2907,-1.2937,-1.2982,-1.3001,-1.304,-1.3067,-1.3118,-1.3132,-1.316,-1.3189,-1.3205,-1.3208,-1.3219,-1.3221,-1.3215,-1.3236,-1.3224,-1.3225,-1.3224,-1.3224,-1.3225,-1.3232,0,-1.2715,-1.277,-1.2808,-1.2848,-1.288,-1.2918,-1.2944,-1.2983,-1.3014,-1.3045,-1.308,-1.3115,-1.3132,-1.3149,-1.3167,-1.3204,-1.3213,-1.3204,-1.3249,-1.325,-1.3236,-1.3227,-1.3214,-1.322,-1.3234,-1.3234,-1.3235,0,-1.2725,-1.2763,-1.2806,-1.2861,-1.2876,-1.2898,-1.2943,-1.2972,-1.3017,-1.3039,-1.307,-1.3099,-1.3133,-1.3143,-1.319,-1.3183,-1.3204,-1.3225,-1.3226,-1.3232,-1.3242,-1.3233,-1.3222,-1.3223,-1.3237,-1.3237,-1.3237,0,-1.2696,-1.2759,-1.2793,-1.2814,-1.2879,-1.2894,-1.2922,-1.2967,-1.2992,-1.3031,-1.3048,-1.309,-1.3114,-1.3146,-1.3187,-1.319,-1.323,-1.3243,-1.3249,-1.3248,-1.3255,-1.3254,-1.3248,-1.3269,-1.3268,-1.3268,-1.3268,0,-1.2695,-1.2719,-1.2781,-1.2802,-1.2831,-1.2875,-1.2903,-1.2935,-1.2974,-1.3002,-1.3039,-1.3064,-1.3116,-1.3148,-1.318,-1.3214,-1.3224,-1.3243,-1.3251,-1.324,-1.3237,-1.3254,-1.3255,-1.3269,-1.3269,-1.3269,-1.3269,0,-1.2668,-1.271,-1.275,-1.2808,-1.2824,-1.2843,-1.2893,-1.2915,-1.2948,-1.2983,-1.2994,-1.3046,-1.3086,-1.3129,-1.3183,-1.3205,-1.3238,-1.3249,-1.3222,-1.3227,-1.3231,-1.323,-1.3235,-1.3238,-1.3256,-1.3256,-1.3255,0,-1.2664,-1.2684,-1.2745,-1.2766,-1.2793,-1.2826,-1.2852,-1.2897,-1.2922,-1.2975,-1.2991,-1.3033,-1.3069,-1.3131,-1.3174,-1.3216,-1.3229,-1.3228,-1.3235,-1.3224,-1.3229,-1.3228,-1.323,-1.3226,-1.3225,-1.3225,-1.3225,0,-1.2652,-1.2672,-1.2707,-1.275,-1.278,-1.2815,-1.2853,-1.2868,-1.2921,-1.2947,-1.2988,-1.3016,-1.3072,-1.3114,-1.3161,-1.319,-1.3216,-1.3222,-1.3226,-1.3214,-1.3198,-1.3207,-1.3216,-1.3222,-1.3222,-1.3222,-1.3222,-1.3222,-1.2637,-1.2657,-1.2703,-1.2741,-1.2774,-1.2808,-1.2832,-1.2868,-1.2903,-1.2951,-1.2976,-1.3016,-1.3062,-1.3128,-1.3157,-1.319,-1.3198,-1.3203,-1.3204,-1.3205,-1.3202,-1.3192,-1.3199,-1.3199,-1.3199,-1.3199,-1.3199,0,-1.2627,-1.2659,-1.2693,-1.2745,-1.2775,-1.2797,-1.2839,-1.2863,-1.2899,-1.2939,-1.2974,-1.3021,-1.3062,-1.3108,-1.3152,-1.317,-1.3183,-1.318,-1.3179,-1.3186,-1.3192,-1.3185,-1.3169,-1.3169,-1.3169,-1.3169,-1.3169,-1.3169,-1.2626,-1.266,-1.2686,-1.2737,-1.2769,-1.2809,-1.2832,-1.2864,-1.2896,-1.2947,-1.2981,-1.3011,-1.3054,-1.3102,-1.3141,-1.3153,-1.3168,-1.3161,-1.3178,-1.3183,-1.3185,-1.3187,-1.3181,-1.3164,-1.3164,-1.3169,-1.3169,-1.3169]},{"header":{"parameterUnit":"m.s-1","parameterCategory":1,"la1":30.2991,"la2":30.254,"lo1":-89.0895,"lo2":-89.0444,"dx":0.0017,"dy":0.0017,"nx":28,"ny":28,"refTime":"2022-11-28T15:00:00:Z","depth":0,"parameterNumber":3,"parameterNumberName":"V-component_of_WINDS"},"data":[0,0,0,0,0,0,0,0,0,0,0,0,0,0,0,0,0,0,0,0,0,0,0,0,0,0,0,0,0,0,0,0,0,0,0,0,0,0,0,0,0,0,0,0,0,0,0,0,0,0,0,0,0,0,0,0,0,0,5.7106,5.7107,0,5.7263,5.7265,5.7266,5.7274,5.7272,5.727,5.7268,5.7424,5.743,5.7436,0,0,0,0,0,0,0,0,0,0,0,0,0,5.6808,5.6813,5.7105,5.7107,5.7109,5.7262,5.7265,5.7267,5.7274,5.7272,5.727,5.7268,5.7422,5.7429,5.7436,0,0,0,0,0,0,0,0,0,0,0,0,0,5.6948,5.6815,5.7105,5.7132,5.7136,5.7262,5.7265,5.7267,5.7275,5.7272,5.7269,5.7267,5.742,5.7428,5.7437,5.7546,0,0,5.7464,5.7468,0,0,0,0,0,0,0,0,5.694,5.6959,5.7126,5.713,5.7135,5.7246,5.7217,5.7361,5.7275,5.7222,5.7268,5.7265,5.7367,5.738,5.7415,5.7553,5.756,5.7465,5.747,5.7474,5.7476,0,0,0,0,0,0,0,5.6931,5.6952,5.7167,5.7128,5.7134,5.7135,5.7151,5.7244,5.7307,5.7226,5.7227,5.7246,5.7369,5.7407,5.7419,5.7562,5.7464,5.7472,5.7478,5.7481,5.7801,5.7804,0,0,0,0,0,0,5.6916,5.6944,5.7162,5.7172,5.7029,5.7142,5.7161,5.7213,5.7307,5.7318,5.7248,5.7246,5.7393,5.7408,5.7424,5.7561,5.7474,5.7482,5.7487,5.7798,5.7802,5.7805,0,0,0,0,0,0,5.691,5.6936,5.7156,5.7059,5.7087,5.715,5.7208,5.7217,5.7256,5.7323,5.7334,5.7276,5.7391,5.7412,5.7517,5.7566,5.7486,5.7494,5.7794,5.7799,5.7804,5.7833,0,0,0,0,0,0,5.6901,5.6933,5.6976,5.706,5.7092,5.7247,5.7211,5.7222,5.7271,5.727,5.7352,5.7363,5.7391,5.7504,5.7526,5.7577,5.7501,5.779,5.7796,5.7802,5.7828,5.7839,5.7848,0,0,0,0,0,5.6891,5.6976,5.6978,5.7005,5.7147,5.725,5.7269,5.7301,5.7275,5.7319,5.7362,5.736,5.7557,5.7514,5.7539,5.7594,5.7787,5.7795,5.7802,5.7824,5.7837,5.7847,0,0,0,0,0,0,5.6894,5.6988,5.6991,5.7106,5.7171,5.7251,5.7307,5.7312,5.7384,5.7379,5.7414,5.7432,5.7537,5.7575,5.7527,5.7706,5.7669,5.7682,5.7678,5.769,5.77,5.7689,5.7508,0,0,0,0,0,5.6909,5.6986,5.7063,5.7157,5.719,5.7243,5.7289,5.7308,5.7375,5.7402,5.7453,5.7517,5.7594,5.7644,5.7717,5.7833,5.7852,5.7883,5.7892,5.79,5.7911,5.7978,5.7994,5.7829,5.7829,5.7829,0,0,5.6939,5.7,5.7046,5.716,5.7212,5.7291,5.7265,5.7349,5.7408,5.7414,5.7518,5.7558,5.7632,5.7743,5.7795,5.7778,5.7961,5.7909,5.7915,5.7922,5.7987,5.8003,5.8017,5.7834,5.7833,5.7833,0,0,5.7036,5.7088,5.7175,5.7228,5.7309,5.7344,5.7364,5.7445,5.7473,5.7578,5.7585,5.7654,5.7785,5.7839,5.7883,5.8002,5.8003,5.8024,5.8076,5.814,5.8153,5.8165,5.8211,5.8226,5.8035,5.8035,5.8035,0,5.7063,5.7184,5.7218,5.7304,5.7354,5.7365,5.7453,5.7502,5.7602,5.7636,5.7616,5.7783,5.7833,5.7959,5.7988,5.8023,5.8048,5.8016,5.8149,5.8161,5.8173,5.8216,5.8233,5.8037,5.8037,5.8037,5.8036,0,5.7215,5.7299,5.7358,5.7458,5.7515,5.76,5.7647,5.77,5.7715,5.7752,5.786,5.792,5.8008,5.8039,5.8052,5.8168,5.8156,5.8142,5.8106,5.819,5.8232,5.8249,5.804,5.804,5.8039,5.8038,0,0,5.7318,5.7437,5.7459,5.7506,5.7596,5.7661,5.7747,5.7836,5.7882,5.795,5.8024,5.8136,5.8125,5.8175,5.8194,5.8251,5.8346,5.8231,5.8233,5.8253,5.848,5.8492,5.851,5.8346,5.8349,5.8352,5.8474,0,5.7427,5.7585,5.7618,5.7754,5.7833,5.7845,5.7921,5.7984,5.8021,5.8093,5.8132,5.8213,5.819,5.8221,5.8278,5.8322,5.8392,5.8313,5.8417,5.842,5.8401,5.8532,5.8544,5.8657,5.8491,5.8493,5.8495,0,5.7575,5.7651,5.7795,5.7878,5.7912,5.798,5.8066,5.8133,5.8206,5.8229,5.8286,5.8301,5.8391,5.835,5.8475,5.8421,5.8465,5.8494,5.8499,5.8512,5.8465,5.8551,5.8693,5.8711,5.8521,5.8519,5.8517,0,5.764,5.7777,5.7883,5.7921,5.802,5.8068,5.8111,5.818,5.8232,5.8306,5.834,5.8422,5.8468,5.8531,5.8567,5.8533,5.8691,5.8652,5.8714,5.8713,5.8749,5.8746,5.8903,5.8772,5.8772,5.8771,5.8771,0,5.776,5.7849,5.7914,5.7979,5.8079,5.8116,5.8213,5.8255,5.8318,5.8391,5.8404,5.8472,5.8515,5.8589,5.8617,5.8719,5.8738,5.876,5.8767,5.8761,5.8758,5.8792,5.8786,5.8776,5.8775,5.8774,5.8773,0,5.7851,5.7898,5.8014,5.8098,5.8122,5.8192,5.8264,5.8327,5.8365,5.8457,5.8481,5.854,5.8628,5.867,5.8777,5.8797,5.8913,5.8913,5.889,5.8893,5.8954,5.8949,5.914,5.9168,5.9016,5.9017,5.9018,0,5.7925,5.7995,5.8088,5.8139,5.8184,5.8266,5.832,5.8359,5.8415,5.8504,5.8557,5.8646,5.872,5.886,5.8911,5.8994,5.8999,5.906,5.9011,5.9004,5.9003,5.9,5.9009,5.9069,5.907,5.9072,5.9073,0,5.8054,5.8075,5.8154,5.8242,5.8307,5.8377,5.8446,5.8487,5.8537,5.8599,5.8691,5.8748,5.886,5.8949,5.9036,5.9079,5.9085,5.9087,5.9107,5.9103,5.9088,5.91,5.8917,5.9083,5.9082,5.9081,5.9081,5.908,5.8142,5.8205,5.8282,5.837,5.8427,5.8491,5.8557,5.8604,5.8681,5.8778,5.8795,5.8894,5.8965,5.9084,5.913,5.9207,5.9193,5.922,5.9227,5.9234,5.9239,5.9073,5.9222,5.9222,5.9221,5.9221,5.9221,0,5.8274,5.8325,5.8406,5.8504,5.8573,5.8574,5.8651,5.8709,5.8796,5.8863,5.8937,5.9043,5.913,5.9189,5.9277,5.9327,5.9333,5.935,5.9348,5.9358,5.9245,5.9221,5.9344,5.9344,5.9344,5.9344,5.9344,5.9344,5.8352,5.846,5.849,5.8627,5.8677,5.8775,5.882,5.888,5.8934,5.9054,5.9127,5.9166,5.923,5.9324,5.9403,5.9418,5.9451,5.9469,5.9484,5.9378,5.9365,5.9353,5.9331,5.9475,5.9476,5.9592,5.9593,5.9594]}]]